EN

Hourly Weather Kyurek

Today, 6 August, Friday

Time Temperature Precipitation Wind Pressure Humidity
00:00 +21°C° 0 mm 3 mps 673 mmHg 54%
01:00 +20°C° 0 mm 3 mps 673 mmHg 52%
02:00 +20°C° 0 mm 3 mps 673 mmHg 51%
03:00 +20°C° 0 mm 3 mps 673 mmHg 49%
04:00 +21°C° 0 mm 3 mps 673 mmHg 48%
05:00 +21°C° 0 mm 2 mps 673 mmHg 48%
06:00 +23°C° 0 mm 2 mps 673 mmHg 47%
07:00 +25°C° 0 mm 2 mps 673 mmHg 42%
08:00 +27°C° 0 mm 2 mps 674 mmHg 37%
09:00 +29°C° 0 mm 2 mps 674 mmHg 32%
10:00 +30°C° 0 mm 2 mps 674 mmHg 31%
11:00 +31°C° 0 mm 3 mps 674 mmHg 29%
12:00 +33°C° 0 mm 4 mps 674 mmHg 28%
13:00 +33°C° 0 mm 4 mps 673 mmHg 30%
14:00 +32°C° 0 mm 4 mps 673 mmHg 32%
15:00 +32°C° 0 mm 4 mps 673 mmHg 34%
16:00 +30°C° 0 mm 3 mps 673 mmHg 38%
17:00 +29°C° 0 mm 3 mps 672 mmHg 42%
18:00 +27°C° 0 mm 2 mps 672 mmHg 47%
19:00 +26°C° 0 mm 2 mps 672 mmHg 48%
20:00 +25°C° 0 mm 2 mps 672 mmHg 50%
21:00 +23°C° 0 mm 2 mps 671 mmHg 52%
22:00 +22°C° 0 mm 3 mps 671 mmHg 50%
23:00 +22°C° 0 mm 3 mps 671 mmHg 48%

Tomorrow, 7 August, Saturday

Time Temperature Precipitation Wind Pressure Humidity
00:00 +22°C° 0 mm 3 mps 671 mmHg 46%
01:00 +21°C° 0 mm 3 mps 670 mmHg 45%
02:00 +21°C° 0 mm 3 mps 670 mmHg 44%
03:00 +21°C° 0 mm 3 mps 670 mmHg 44%
04:00 +21°C° 0 mm 3 mps 670 mmHg 43%
05:00 +22°C° 0 mm 3 mps 670 mmHg 42%
06:00 +22°C° 0 mm 3 mps 670 mmHg 41%
07:00 +26°C° 0 mm 2 mps 671 mmHg 35%
08:00 +29°C° 0 mm 2 mps 671 mmHg 30%
09:00 +31°C° 0 mm 2 mps 671 mmHg 24%
10:00 +33°C° 0 mm 3 mps 671 mmHg 22%
11:00 +35°C° 0 mm 3 mps 671 mmHg 20%
12:00 +36°C° 0 mm 4 mps 671 mmHg 18%
13:00 +36°C° 0 mm 4 mps 671 mmHg 19%
14:00 +36°C° 0 mm 5 mps 671 mmHg 20%
15:00 +36°C° 0 mm 5 mps 671 mmHg 21%
16:00 +34°C° 0 mm 4 mps 671 mmHg 25%
17:00 +31°C° 0 mm 3 mps 670 mmHg 30%
18:00 +30°C° 0 mm 2 mps 670 mmHg 34%
19:00 +28°C° 0 mm 2 mps 670 mmHg 36%
20:00 +27°C° 0 mm 2 mps 670 mmHg 38%
21:00 +25°C° 0 mm 3 mps 670 mmHg 40%
22:00 +25°C° 0 mm 3 mps 670 mmHg 40%
23:00 +25°C° 0 mm 3 mps 670 mmHg 40%

Day after tomorrow, 8 August, Sunday

Time Temperature Precipitation Wind Pressure Humidity
00:00 +25°C° 0 mm 3 mps 670 mmHg 39%
01:00 +25°C° 0 mm 3 mps 670 mmHg 38%
02:00 +25°C° 0 mm 3 mps 670 mmHg 37%
03:00 +25°C° 0 mm 3 mps 670 mmHg 36%
04:00 +25°C° 0 mm 3 mps 670 mmHg 36%
05:00 +26°C° 0 mm 2 mps 670 mmHg 37%
06:00 +26°C° 0 mm 2 mps 671 mmHg 37%
07:00 +28°C° 0 mm 2 mps 671 mmHg 35%
08:00 +30°C° 0 mm 2 mps 672 mmHg 32%
09:00 +31°C° 0 mm 3 mps 672 mmHg 29%
10:00 +33°C° 0 mm 3 mps 673 mmHg 31%
11:00 +33°C° 0 mm 4 mps 673 mmHg 32%
12:00 +33°C° 0 mm 4 mps 673 mmHg 33%
13:00 +33°C° 0 mm 4 mps 673 mmHg 34%
14:00 +34°C° 0 mm 4 mps 673 mmHg 34%
15:00 +34°C° 0 mm 4 mps 673 mmHg 35%
16:00 +31°C° 0 mm 3 mps 673 mmHg 39%
17:00 +30°C° 0 mm 2 mps 673 mmHg 44%
18:00 +29°C° 0 mm 1 mps 673 mmHg 48%
19:00 +28°C° 0.1 mm 2 mps 673 mmHg 52%
20:00 +26°C° 0.1 mm 2 mps 673 mmHg 56%
21:00 +25°C° 0.1 mm 2 mps 673 mmHg 60%
22:00 +25°C° 0 mm 2 mps 673 mmHg 59%
23:00 +25°C° 0 mm 2 mps 673 mmHg 59%

9 August, Monday

Time Temperature Precipitation Wind Pressure Humidity
00:00 +25°C° 0 mm 2 mps 674 mmHg 58%
01:00 +24°C° 0 mm 2 mps 674 mmHg 59%
02:00 +24°C° 0 mm 2 mps 674 mmHg 59%
03:00 +24°C° 0 mm 2 mps 674 mmHg 59%
04:00 +24°C° 0 mm 2 mps 674 mmHg 58%
05:00 +25°C° 0 mm 2 mps 674 mmHg 57%
06:00 +25°C° 0 mm 1 mps 674 mmHg 55%
07:00 +27°C° 0 mm 2 mps 675 mmHg 50%
08:00 +29°C° 0 mm 2 mps 675 mmHg 45%
09:00 +31°C° 0 mm 2 mps 675 mmHg 40%
10:00 +31°C° 0 mm 3 mps 675 mmHg 39%
11:00 +33°C° 0 mm 4 mps 675 mmHg 38%
12:00 +34°C° 0 mm 4 mps 675 mmHg 37%
13:00 +33°C° 0.5 mm 4 mps 675 mmHg 41%
14:00 +31°C° 0.5 mm 3 mps 675 mmHg 44%
15:00 +30°C° 0.5 mm 2 mps 675 mmHg 48%
16:00 +29°C° 0.2 mm 2 mps 675 mmHg 50%
17:00 +29°C° 0.2 mm 2 mps 675 mmHg 52%
18:00 +28°C° 0.2 mm 1 mps 675 mmHg 54%
19:00 +27°C° 0 mm 2 mps 674 mmHg 56%
20:00 +26°C° 0 mm 2 mps 674 mmHg 58%
21:00 +25°C° 0 mm 2 mps 674 mmHg 60%
22:00 +25°C° 0 mm 2 mps 674 mmHg 57%
23:00 +25°C° 0 mm 2 mps 674 mmHg 55%

10 August, Tuesday

Time Temperature Precipitation Wind Pressure Humidity
00:00 +25°C° 0 mm 2 mps 674 mmHg 52%
01:00 +24°C° 0 mm 2 mps 674 mmHg 53%
02:00 +24°C° 0 mm 2 mps 674 mmHg 53%
03:00 +24°C° 0 mm 1 mps 674 mmHg 53%
04:00 +24°C° 0 mm 1 mps 674 mmHg 53%
05:00 +24°C° 0 mm 1 mps 674 mmHg 54%
06:00 +25°C° 0 mm 1 mps 674 mmHg 54%
07:00 +26°C° 0 mm 2 mps 674 mmHg 50%
08:00 +28°C° 0 mm 2 mps 675 mmHg 45%
09:00 +30°C° 0 mm 3 mps 675 mmHg 41%
10:00 +31°C° 0 mm 3 mps 675 mmHg 41%
11:00 +31°C° 0 mm 3 mps 675 mmHg 40%
12:00 +33°C° 0 mm 4 mps 675 mmHg 40%
13:00 +33°C° 0 mm 4 mps 674 mmHg 41%
14:00 +32°C° 0 mm 4 mps 674 mmHg 43%
15:00 +31°C° 0 mm 3 mps 674 mmHg 45%
16:00 +30°C° 0.1 mm 3 mps 674 mmHg 49%
17:00 +29°C° 0.1 mm 2 mps 674 mmHg 53%
18:00 +28°C° 0.1 mm 2 mps 674 mmHg 57%
19:00 +27°C° 0 mm 2 mps 674 mmHg 59%
20:00 +25°C° 0 mm 2 mps 673 mmHg 62%
21:00 +24°C° 0 mm 2 mps 673 mmHg 64%
22:00 +24°C° 0 mm 2 mps 673 mmHg 60%
23:00 +24°C° 0 mm 2 mps 673 mmHg 56%

11 August, Wednesday

Time Temperature Precipitation Wind Pressure Humidity
00:00 +24°C° 0 mm 2 mps 673 mmHg 52%
01:00 +24°C° 0 mm 2 mps 673 mmHg 51%
02:00 +24°C° 0 mm 2 mps 672 mmHg 50%
03:00 +23°C° 0 mm 2 mps 672 mmHg 49%
04:00 +24°C° 0 mm 2 mps 672 mmHg 47%
05:00 +24°C° 0 mm 2 mps 672 mmHg 45%
06:00 +25°C° 0 mm 2 mps 672 mmHg 43%
07:00 +27°C° 0 mm 2 mps 672 mmHg 39%
08:00 +29°C° 0 mm 2 mps 672 mmHg 35%
09:00 +32°C° 0 mm 2 mps 673 mmHg 30%
10:00 +34°C° 0 mm 3 mps 672 mmHg 28%
11:00 +35°C° 0 mm 3 mps 672 mmHg 27%
12:00 +36°C° 0 mm 4 mps 672 mmHg 25%
13:00 +35°C° 0 mm 4 mps 672 mmHg 28%
14:00 +35°C° 0 mm 4 mps 671 mmHg 30%
15:00 +34°C° 0 mm 3 mps 671 mmHg 33%
16:00 +33°C° 0 mm 3 mps 671 mmHg 39%
17:00 +30°C° 0 mm 2 mps 671 mmHg 44%
18:00 +29°C° 0 mm 2 mps 670 mmHg 50%
19:00 +27°C° 0 mm 2 mps 671 mmHg 49%
20:00 +26°C° 0 mm 2 mps 671 mmHg 49%
21:00 +25°C° 0 mm 2 mps 671 mmHg 48%
22:00 +25°C° 0 mm 2 mps 671 mmHg 47%
23:00 +25°C° 0 mm 2 mps 671 mmHg 45%
Show more